Hourly Data Report for September 28, 2017

All times are specified in Local Standard Time (LST). Add 1 hour to adjust for Daylight Saving Time where and when it is observed.

FREDERICTON
NEW BRUNSWICK

45°52'08.000" N
66°32'14.000" W
20.70 m
8101505
71700
YFC

Download Data

Hourly Data (September 2017)
Hourly Data Report for September 28, 2017
Temp Definition
°C
Dew Point Temp Definition
°C
Rel Hum Definition
%
Wind Dir Definition
10's deg

Wind Spd Definition
km/h
Visibility Definition
km
Stn Press Definition
kPa
Hmdx Definition


Wind Chill Definition


Weather Definition


TIME
00:00 Legend Double Dagger 20.1 18.3 89 18 8 16.1 100.23 26   LegendNANA
01:00 Legend Double Dagger 20.0 18.5 91 14 5 16.1 100.16 26   LegendNANA
02:00 Legend Double Dagger 19.9 18.8 93 18 8 16.1 100.08     LegendNANA
03:00 Legend Double Dagger 20.2 19.2 94 19 13 16.1 100.02 27   LegendNANA
04:00 Legend Double Dagger 20.0 19.0 94 LegendMM 4 16.1 100.01 27   Rain
05:00 Legend Double Dagger 19.8 19.2 96 22 21 3.2 100.10     Thunderstorms,Moderate Rain,Fog
06:00 Legend Double Dagger 18.5 17.5 94 LegendMM 4 16.1 99.99     LegendNANA
07:00 Legend Double Dagger 18.1 16.8 92 22 8 16.1 99.96     LegendNANA
08:00 Legend Double Dagger 18.6 17.1 91 26 13 16.1 99.99     LegendNANA
09:00 Legend Double Dagger 18.5 14.7 78 31 15 16.1 100.06     LegendNANA
10:00 Legend Double Dagger 18.4 13.2 71 27 15 16.1 100.09     LegendNANA
11:00 Legend Double Dagger 17.8 11.4 66 27 11 16.1 100.10     LegendNANA
12:00 Legend Double Dagger 20.0 9.3 50 29 28 16.1 100.10     LegendNANA
13:00 Legend Double Dagger 20.4 9.0 48 30 15 16.1 100.11     LegendNANA
14:00 Legend Double Dagger 20.0 8.8 48 29 22 16.1 100.09     LegendNANA
15:00 Legend Double Dagger 19.9 7.9 46 29 22 16.1 100.16     LegendNANA
16:00 Legend Double Dagger 17.6 7.5 51 30 26 16.1 100.21     LegendNANA
17:00 Legend Double Dagger 16.5 6.9 53 31 18 16.1 100.25     LegendNANA
18:00 Legend Double Dagger 14.6 5.0 52 30 17 16.1 100.34     LegendNANA
19:00 Legend Double Dagger 13.2 5.0 57 30 11 16.1 100.38     LegendNANA
20:00 Legend Double Dagger 12.5 4.8 59 30 13 16.1 100.46     LegendNANA
21:00 Legend Double Dagger 11.7 3.5 57 30 18 16.1 100.50     LegendNANA
22:00 Legend Double Dagger 9.9 3.9 66 27 8 16.1 100.58     LegendNANA
23:00 Legend Double Dagger 9.3 4.0 69 29 15 16.1 100.58     LegendNANA

Notes on Data Quality.

Legend

  • E = Estimated
  • M = Missing
  • NA = Not Available
  • ‡ = Partner data that is not subject to review by the National Climate Archives
Date modified: